| time (UTC) | temp F | wind direction | speed knots | gust knots | rain 1hr in | rain 24hr in | rain mn in | humidity % | barometer mb |
| 20260904030014 | 59 | 255 | 0.0 | 0.0 | 0.00 | 0.00 | 0.00 | 87 | 1004.7 |
| 20260904024514 | 60 | 219 | 0.9 | 0.0 | 0.00 | 0.00 | 0.00 | 87 | 1004.4 |
| 20260904023011 | 60 | 223 | 0.0 | 0.0 | 0.00 | 0.00 | 0.00 | 87 | 1004.7 |
| 20260904021510 | 60 | 257 | 0.0 | 0.0 | 0.00 | 0.00 | 0.00 | 88 | 1004.7 |
| 20260904020009 | 60 | 234 | 0.9 | 0.0 | 0.00 | 0.00 | 0.00 | 88 | 1005.0 |
| 20260904014512 | 60 | 288 | 0.9 | 0.0 | 0.00 | 0.00 | 0.00 | 88 | 1005.1 |
| 20260904013007 | 60 | 245 | 0.9 | 0.0 | 0.00 | 0.00 | 0.00 | 89 | 1005.1 |
| 20260904011507 | 60 | 230 | 0.0 | 0.0 | 0.00 | 0.00 | 0.00 | 89 | 1005.1 |
| 20260904010011 | 60 | 233 | 0.9 | 0.0 | 0.00 | 0.00 | 0.00 | 89 | 1005.2 |
| 20260904004504 | 60 | 236 | 0.9 | 0.0 | 0.00 | 0.00 | 0.00 | 89 | 1005.3 |
| 20260904003003 | 60 | 226 | 0.9 | 0.0 | 0.00 | 0.00 | 0.00 | 89 | 1005.4 |
| 20260904001505 | 60 | 215 | 0.0 | 0.0 | 0.00 | 0.00 | 0.00 | 89 | 1005.6 |
| 20260904000003 | 60 | 216 | 0.9 | 0.0 | 0.00 | 0.00 | 0.00 | 88 | 1005.4 |
| 20260903234559 | 61 | 296 | 0.9 | 0.0 | 0.00 | 0.00 | 0.00 | 89 | 1005.5 |
| 20260903233058 | 61 | 213 | 0.9 | 0.0 | 0.00 | 0.00 | 0.00 | 89 | 1005.7 |
| 20260903231602 | 61 | 245 | 0.0 | 0.0 | 0.00 | 0.00 | 0.00 | 89 | 1005.6 |
| 20260903230057 | 61 | 230 | 0.0 | 0.0 | 0.00 | 0.00 | 0.00 | 89 | 1005.6 |
| 20260903224601 | 61 | 286 | 0.9 | 0.0 | 0.00 | 0.00 | 0.00 | 89 | 1005.7 |
| 20260903223055 | 61 | 238 | 0.9 | 0.0 | 0.00 | 0.00 | 0.00 | 89 | 1005.9 |
| 20260903221555 | 61 | 250 | 0.9 | 0.0 | 0.00 | 0.00 | 0.00 | 89 | 1006.0 |
| 20260903220053 | 61 | 206 | 0.0 | 0.0 | 0.00 | 0.00 | 0.00 | 89 | 1005.8 |
| 20260903214603 | 61 | 236 | 0.9 | 0.0 | 0.00 | 0.00 | 0.03 | 88 | 1005.7 |
| 20260903213052 | 61 | 238 | 0.9 | 0.0 | 0.00 | 0.00 | 0.02 | 88 | 1005.8 |
| 20260903211554 | 61 | 257 | 0.9 | 0.0 | 0.00 | 0.00 | 0.02 | 89 | 1005.8 |
| 20260903210107 | 61 | 267 | 0.9 | 0.0 | 0.00 | 0.00 | 0.02 | 88 | 1005.8 |
| 20260903204601 | 61 | 287 | 0.0 | 0.0 | 0.00 | 0.00 | 0.02 | 89 | 1005.8 |
| 20260903203051 | 61 | 240 | 0.0 | 0.0 | 0.00 | 0.00 | 0.02 | 89 | 1006.0 |
| 20260903201549 | 62 | 286 | 0.0 | 0.0 | 0.00 | 0.00 | 0.02 | 89 | 1005.7 |
| 20260903200104 | 62 | 260 | 0.0 | 0.0 | 0.00 | 0.00 | 0.02 | 89 | 1005.8 |
| 20260903194548 | 62 | 217 | 0.9 | 0.0 | 0.00 | 0.00 | 0.02 | 89 | 1005.8 |
| 20260903193047 | 63 | 228 | 0.9 | 0.0 | 0.00 | 0.00 | 0.02 | 89 | 1005.6 |
| 20260903191559 | 63 | 248 | 0.9 | 0.0 | 0.00 | 0.00 | 0.02 | 89 | 1005.6 |
| 20260903190046 | 63 | 279 | 0.0 | 0.0 | 0.00 | 0.00 | 0.02 | 89 | 1005.5 |
| 20260903184549 | 63 | 203 | 0.0 | 0.0 | 0.00 | 0.00 | 0.02 | 88 | 1005.5 |
| 20260903183051 | 63 | 176 | 0.9 | 0.0 | 0.00 | 0.00 | 0.02 | 88 | 1005.4 |
| 20260903181545 | 63 | 233 | 0.9 | 0.0 | 0.00 | 0.00 | 0.02 | 89 | 1005.1 |
| 20260903180046 | 64 | 257 | 1.7 | 0.0 | 0.00 | 0.00 | 0.02 | 89 | 1005.0 |
| 20260903174545 | 65 | 226 | 1.7 | 0.0 | 0.00 | 0.00 | 0.02 | 89 | 1004.7 |
| 20260903173045 | 65 | 234 | 1.7 | 0.0 | 0.00 | 0.00 | 0.02 | 89 | 1004.7 |
| 20260903171601 | 65 | 296 | 1.7 | 0.0 | 0.00 | 0.00 | 0.02 | 88 | 1004.7 |
| 20260903170050 | 66 | 221 | 1.7 | 0.0 | 0.00 | 0.00 | 0.02 | 88 | 1004.6 |
| 20260903164543 | 66 | 243 | 2.6 | 0.0 | 0.00 | 0.00 | 0.02 | 88 | 1004.3 |
| 20260903163043 | 66 | 253 | 1.7 | 0.0 | 0.00 | 0.00 | 0.02 | 89 | 1004.4 |
| 20260903161541 | 67 | 215 | 1.7 | 0.0 | 0.00 | 0.00 | 0.02 | 90 | 1004.3 |
| 20260903160041 | 68 | 219 | 1.7 | 0.0 | 0.00 | 0.00 | 0.02 | 91 | 1004.7 |
| 20260903154540 | 68 | 227 | 0.9 | 0.0 | 0.00 | 0.00 | 0.02 | 93 | 1004.6 |
| 20260903153036 | 67 | 225 | 1.7 | 0.0 | 0.00 | 0.00 | 0.02 | 94 | 1004.8 |
| 20260903151538 | 66 | 223 | 0.9 | 0.0 | 0.00 | 0.00 | 0.02 | 94 | 1004.7 |
| 20260903150043 | 66 | 219 | 4.3 | 0.0 | 0.00 | 0.00 | 0.02 | 94 | 1004.6 |
| 20260903144529 | 65 | 232 | 2.6 | 0.0 | 0.00 | 0.00 | 0.02 | 95 | 1004.7 |
| 20260903143034 | 64 | 223 | 0.0 | 0.0 | 0.00 | 0.00 | 0.02 | 94 | 1004.9 |
| 20260903141524 | 63 | 223 | 0.9 | 0.0 | 0.00 | 0.00 | 0.02 | 94 | 1004.9 |
| 20260903140024 | 63 | 233 | 0.9 | 0.0 | 0.00 | 0.00 | 0.02 | 94 | 1005.2 |
| 20260903134524 | 63 | 232 | 0.0 | 0.0 | 0.00 | 0.00 | 0.02 | 94 | 1005.4 |
| 20260903133020 | 63 | 232 | 0.9 | 0.0 | 0.00 | 0.00 | 0.02 | 94 | 1005.6 |
| 20260903131519 | 63 | 225 | 0.0 | 0.0 | 0.00 | 0.00 | 0.02 | 94 | 1005.6 |
| 20260903130021 | 63 | 225 | 1.7 | 0.0 | 0.00 | 0.00 | 0.02 | 94 | 1005.8 |
| 20260903124515 | 63 | 231 | 0.9 | 0.0 | 0.00 | 0.00 | 0.02 | 94 | 1005.7 |
| 20260903123012 | 62 | 227 | 0.9 | 0.0 | 0.00 | 0.00 | 0.02 | 94 | 1006.1 |
| 20260903121511 | 62 | 235 | 0.9 | 0.0 | 0.00 | 0.00 | 0.02 | 94 | 1006.2 |
| 20260903120009 | 62 | 224 | 0.0 | 0.0 | 0.00 | 0.00 | 0.02 | 94 | 1006.3 |
| 20260903114508 | 62 | 188 | 0.0 | 0.0 | 0.00 | 0.00 | 0.02 | 94 | 1006.4 |
| 20260903113005 | 61 | 175 | 0.0 | 0.0 | 0.00 | 0.00 | 0.02 | 94 | 1006.6 |
| 20260903111503 | 61 | 169 | 0.0 | 0.0 | 0.00 | 0.00 | 0.02 | 94 | 1006.7 |
| 20260903110001 | 61 | 142 | 0.0 | 0.0 | 0.00 | 0.00 | 0.02 | 94 | 1007.0 |
| 20260903104600 | 61 | 169 | 0.0 | 0.0 | 0.00 | 0.00 | 0.02 | 93 | 1007.2 |
| 20260903103058 | 61 | 169 | 0.0 | 0.0 | 0.00 | 0.00 | 0.02 | 93 | 1007.4 |
| 20260903101602 | 61 | 168 | 0.0 | 0.0 | 0.00 | 0.00 | 0.01 | 93 | 1007.5 |
| 20260903100055 | 61 | 168 | 0.9 | 0.0 | 0.00 | 0.00 | 0.01 | 94 | 1007.9 |
| 20260903094639 | 61 | 231 | 0.0 | 0.0 | 0.00 | 0.00 | 0.01 | 94 | 1008.1 |
| 20260903093052 | 61 | 227 | 0.0 | 0.0 | 0.00 | 0.00 | 0.01 | 94 | 1008.3 |
| 20260903091549 | 60 | 227 | 0.0 | 0.0 | 0.00 | 0.00 | 0.01 | 93 | 1008.5 |
| 20260903090049 | 60 | 227 | 0.0 | 0.0 | 0.00 | 0.00 | 0.01 | 93 | 1008.8 |
| 20260903084546 | 60 | 227 | 0.0 | 0.0 | 0.00 | 0.00 | 0.01 | 93 | 1008.9 |
| 20260903083045 | 60 | 225 | 0.0 | 0.0 | 0.00 | 0.00 | 0.01 | 93 | 1009.0 |
| 20260903081544 | 60 | 223 | 0.0 | 0.0 | 0.00 | 0.00 | 0.01 | 94 | 1009.1 |
| 20260903080055 | 60 | 222 | 0.0 | 0.0 | 0.00 | 0.00 | 0.01 | 93 | 1009.2 |
| 20260903074541 | 60 | 226 | 0.9 | 0.0 | 0.00 | 0.00 | 0.01 | 93 | 1009.4 |
| 20260903073043 | 61 | 233 | 0.0 | 0.0 | 0.00 | 0.00 | 0.01 | 93 | 1009.6 |
| 20260903071538 | 61 | 233 | 0.0 | 0.0 | 0.00 | 0.00 | 0.01 | 93 | 1009.7 |
| 20260903070036 | 61 | 234 | 0.9 | 0.0 | 0.00 | 0.00 | 0.01 | 93 | 1009.8 |
| 20260903064536 | 61 | 218 | 0.0 | 0.0 | 0.00 | 0.00 | 0.01 | 93 | 1010.0 |
| 20260903063034 | 61 | 227 | 0.0 | 0.0 | 0.00 | 0.00 | 0.01 | 94 | 1010.0 |
| 20260903061532 | 61 | 228 | 0.9 | 0.0 | 0.00 | 0.00 | 0.01 | 93 | 1010.2 |
| 20260903060030 | 60 | 234 | 0.9 | 0.0 | 0.00 | 0.00 | 0.01 | 94 | 1010.2 |
| 20260903054527 | 60 | 227 | 0.9 | 0.0 | 0.00 | 0.00 | 0.01 | 94 | 1010.4 |
| 20260903053024 | 59 | 227 | 0.0 | 0.0 | 0.00 | 0.00 | 0.01 | 93 | 1010.6 |
| 20260903051521 | 58 | 227 | 0.0 | 0.0 | 0.00 | 0.00 | 0.01 | 93 | 1010.6 |
| 20260903050025 | 58 | 228 | 0.0 | 0.0 | 0.00 | 0.00 | 0.01 | 93 | 1010.8 |
| 20260903044523 | 58 | 228 | 0.0 | 0.0 | 0.00 | 0.00 | 0.01 | 93 | 1010.9 |
| 20260903043022 | 58 | 228 | 0.0 | 0.0 | 0.00 | 0.00 | 0.01 | 92 | 1011.1 |
| 20260903041517 | 58 | 228 | 0.0 | 0.0 | 0.00 | 0.00 | 0.01 | 92 | 1011.3 |
| 20260903040016 | 58 | 228 | 0.0 | 0.0 | 0.00 | 0.00 | 0.01 | 92 | 1011.4 |
| 20260903034514 | 58 | 228 | 0.0 | 0.0 | 0.00 | 0.00 | 0.01 | 92 | 1011.5 |
| 20260903033012 | 58 | 228 | 0.0 | 0.0 | 0.00 | 0.00 | 0.01 | 92 | 1011.7 |
| 20260903031511 | 58 | 228 | 0.0 | 0.0 | 0.00 | 0.00 | 0.01 | 92 | 1011.7 |